Location: Unspecified
(0.0000°N, 0.0000°E)
Time: 13:47:36
(UTC+00:00)

Envisat - Pass Details

Date: 15 September 2019
Orbit: 764 x 766 km, 98.1° (Epoch: 18 September)

Event Time Altitude Azimuth Distance (km) Brightness Sun altitude
Rises 18:55:26 0° 178° (S) 3,230 6.2 -15.0°
Reaches altitude 10° 18:57:48 10° 183° (S) 2,302 5.5 -15.6°
Maximum altitude 19:02:42 51° 258° (WSW) 957 3.9 -16.8°
Drops below altitude 10° 19:07:36 10° 333° (NNW) 2,292 5.8 -18.1°
Sets 19:09:57 0° 338° (NNW) 3,214 6.6 -18.7°
